Address 0xa12a3cce4923c212cc57d7f268f8805af9d75b91

Overview

Balance:
26.988353323652477298 tCRO
My Name Tag:
Not Available

Txn Hash Method
Block
From
To
Value [Txn Fee]
0x7bf278e445e59e3abdc27d23ca05e0a205d17a079fa4262721883afca4624b920x599ba23431621742022-05-11 8:18:42211 days 1 hr ago0xa12a3cce4923c212cc57d7f268f8805af9d75b91OUT0x328c5b69a6fab54c341746852c651e4d2b173bec0 tCRO0.454777129044 1,996.326403685
0x0c4d0a47ce4c72eaf60482e0b7f8b7b29b48343b3212ec9de69646fb658e1b66Create Market Sa...31621592022-05-11 8:17:20211 days 1 hr ago0xa12a3cce4923c212cc57d7f268f8805af9d75b91OUT0x328c5b69a6fab54c341746852c651e4d2b173bec9.09 tCRO0.449199460179 1,996.326701923
0xe7b5538aee1fe16331418d551061e61c71f033f92ef8d06e1c2cf39ebac1ba560x5aafca8031617692022-05-11 7:41:39211 days 2 hrs ago0xa12a3cce4923c212cc57d7f268f8805af9d75b91OUT 0x7f6d4b6e1a481ddcea716b7056874f41d7b169820 tCRO0.053008668577 1,996.334447233
0x3e6ac23f4bd6665f1fc65071a96c98a822b9c33ef16171c0d12a5025fb28e5d60x599ba23431617662022-05-11 7:41:22211 days 2 hrs ago0xa12a3cce4923c212cc57d7f268f8805af9d75b91OUT0x328c5b69a6fab54c341746852c651e4d2b173bec0 tCRO0.470500109075 1,996.334506137
0x3392443ea95cad17ff69bfd4122ebe76ebeb9a1bc03b5a6249db8a09950fb1f0Set Approval For...31617622022-05-11 7:41:00211 days 2 hrs ago0xa12a3cce4923c212cc57d7f268f8805af9d75b91OUT 0x7f6d4b6e1a481ddcea716b7056874f41d7b169820 tCRO0.094728072427 1,996.33458574
0xf389fe9678fc9678ccc01cb9df005c2c7e9cf3a8c11916a3727642bed72d0193Create Market Sa...31617532022-05-11 7:40:11211 days 2 hrs ago0xa12a3cce4923c212cc57d7f268f8805af9d75b91OUT0x328c5b69a6fab54c341746852c651e4d2b173bec1.99 tCRO0.392144030457 1,996.334764488
0x7a45b933ad6e51f73192d991c7e0f9a6b34edb50c54285c8ffdfd557f516cc180x599ba23431616002022-05-11 7:26:10211 days 2 hrs ago0xa12a3cce4923c212cc57d7f268f8805af9d75b91OUT0x328c5b69a6fab54c341746852c651e4d2b173bec0 tCRO0.454779720932 1,996.337781245
0x9d450a15c15c3d38a301de8894c5dc1e564647a8d6eb6975856b1e19f065b38dCreate Market Sa...31600112022-05-11 5:00:41211 days 5 hrs ago0xa12a3cce4923c212cc57d7f268f8805af9d75b91OUT0x328c5b69a6fab54c341746852c651e4d2b173bec0.99 tCRO0.434960967294 1,996.369344465
0x4d8edd3940477c2363b5f52374917d7c6fddd6d620667f93afa2fff0feac30e50x599ba23430877342022-05-06 10:36:32215 days 23 hrs ago0xa12a3cce4923c212cc57d7f268f8805af9d75b91OUT0x328c5b69a6fab54c341746852c651e4d2b173bec0 tCRO0.511498451461 1,997.798905061
0x821b8ddee43c75d7eb2b9732769457e5ae30f47b2a7e89e6d291a4a5a234075eSet Approval For...30877142022-05-06 10:34:42215 days 23 hrs ago0xa12a3cce4923c212cc57d7f268f8805af9d75b91OUT 0xa0f52555c9914d0bd5c33ecba62257646a475beb0 tCRO0.094797574723 1,997.799302931
0x1ed0c07ae5fab0f02463c599d25b18dc1a42e110ec5ee5524028d3a62aa692690x971a458130874182022-05-06 10:07:26215 days 23 hrs ago0xa12a3cce4923c212cc57d7f268f8805af9d75b91OUT 0xa0f52555c9914d0bd5c33ecba62257646a475beb0 tCRO0.422753554811 1,997.8051728
0x610e446439032f435a84631aee254e4f69b8dfc391f171c965ecbdb9f79029d7Transfer From30874122022-05-06 10:06:54215 days 23 hrs ago0xa12a3cce4923c212cc57d7f268f8805af9d75b91OUT 0xa0f52555c9914d0bd5c33ecba62257646a475beb0 tCRO0.154338450006 1,997.805291714
0x6629ef29d14528c4d0649c14d58128b716a3fef28df4ca5950c1fcc62932b24b0x971a458130873632022-05-06 10:02:19216 days 3 mins ago0xa12a3cce4923c212cc57d7f268f8805af9d75b91OUT 0xa0f52555c9914d0bd5c33ecba62257646a475beb0 tCRO0.482687974089 1,997.806265865
0xeb8e9a120e196f6d0ad2eac7c8c3a19b7a822c91d0707de3cb0cff44be04d8a20x33eba49a30873562022-05-06 10:01:41216 days 4 mins ago0xa12a3cce4923c212cc57d7f268f8805af9d75b91OUT 0xa0f52555c9914d0bd5c33ecba62257646a475beb0 tCRO0.456237050833 1,997.806404694
0x1be5ea9bca62fddb71d3e3062b5083afd16e8180ebcfde27af4a6ed8f151756d0x971a458130863412022-05-06 8:28:05216 days 1 hr ago0xa12a3cce4923c212cc57d7f268f8805af9d75b91OUT 0xee560566ef0fb32268fde6e7aa42b762d0a875a50 tCRO0.526471121265 1,997.826068661
0xbde71f85570abb7d11785ab41e124145f24244f1acf4afc2d822ed7341f87bd00x33eba49a30863362022-05-06 8:27:38216 days 1 hr ago0xa12a3cce4923c212cc57d7f268f8805af9d75b91OUT 0xee560566ef0fb32268fde6e7aa42b762d0a875a50 tCRO0.45624156406 1,997.826167564
0x612090a8ac1a820218216d9e5159041053ddd03f135ba0a5b548d2aaf2c6448f0x971a458130861552022-05-06 8:11:05216 days 1 hr ago0xa12a3cce4923c212cc57d7f268f8805af9d75b91OUT 0x6710eca48fcaead7dec75eeae81b882e22eeacd70 tCRO0.491607934317 1,997.829627699
0x3476293c321ceccff1452e3d8bf6b5561a493740b9c1da8e3db47b60c95c3f77Transfer From30861312022-05-06 8:08:53216 days 1 hr ago0xa12a3cce4923c212cc57d7f268f8805af9d75b91OUT 0x6710eca48fcaead7dec75eeae81b882e22eeacd70 tCRO0.189484195173 1,997.830093029
0xa026b913c8a0db195d79ce790eeb6931941877c3e462c6c3ca364defb6db95860x971a458130860772022-05-06 8:03:48216 days 2 hrs ago0xa12a3cce4923c212cc57d7f268f8805af9d75b91OUT 0x6710eca48fcaead7dec75eeae81b882e22eeacd70 tCRO0.551543240385 1,997.831139037
0xb9e19d57a0cfc67a4349b3c4b1773c05dcc293beb93f59c8a87f109646909fa10x33eba49a30860672022-05-06 8:02:53216 days 2 hrs ago0xa12a3cce4923c212cc57d7f268f8805af9d75b91OUT 0x6710eca48fcaead7dec75eeae81b882e22eeacd70 tCRO1.1361141419 4,909.889849306
0x1a96a3ea93fbcf91ccff10a839433107a688a1c40911c3dbf24f9f233170dccd0x971a458130859052022-05-06 7:47:46216 days 2 hrs ago0xa12a3cce4923c212cc57d7f268f8805af9d75b91OUT 0xf2121fbf4945c10b591994fdaa9eaf83d8686a5f0 tCRO0.562254536109 1,997.834418649
0x829e81bef3dd266e9df72c382c0e17887b4d5052af2023e1642d73dfe06f93e20x33eba49a30858852022-05-06 7:45:53216 days 2 hrs ago0xa12a3cce4923c212cc57d7f268f8805af9d75b91OUT 0xf2121fbf4945c10b591994fdaa9eaf83d8686a5f0 tCRO0.506061544659 1,997.834802549
0x64bad0a152a19ec22af1907ab113dab9a273e7fcc070599a7691d479d8658870Transfer From30853222022-05-06 6:53:43216 days 3 hrs ago0xa12a3cce4923c212cc57d7f268f8805af9d75b91OUT 0xbb1dcabe16e078dc4ce7901d71592820b3b796bd0 tCRO0.095562950973 1,997.845649934
0x56350bab801157d7b5ee6c2073b8f1c163edc25ed82db333d50dd2fce15141270x33eba49a30852612022-05-06 6:48:08216 days 3 hrs ago0xa12a3cce4923c212cc57d7f268f8805af9d75b91OUT 0xbb1dcabe16e078dc4ce7901d71592820b3b796bd0 tCRO0.426130737226 1,997.846818851
0xe939d63694be389cde40073236dcc7f6d91f0b0c29d63e533e39fd9c3ebbb61d0x971a458130851542022-05-06 6:38:11216 days 3 hrs ago0xa12a3cce4923c212cc57d7f268f8805af9d75b91OUT 0xbb1dcabe16e078dc4ce7901d71592820b3b796bd0 tCRO0.503827520629 1,997.848883279
[ Download CSV Export 
Latest 4 internal transactions
Parent Txn Hash Block From To Value
0x83e3c7eb9acc9f2a703ebcbcf1c480bdf7519d1ace258ebfb983e320c5664ab131621852022-05-11 8:19:43211 days 1 hr ago 0x328c5b69a6fab54c341746852c651e4d2b173bec0xa12a3cce4923c212cc57d7f268f8805af9d75b919.99 tCRO
0xdf7842c007248ee30bed4de3ffb4e7d4e20ad0025b6f9aedc9383fe5160218f331616192022-05-11 7:27:54211 days 2 hrs ago 0x328c5b69a6fab54c341746852c651e4d2b173bec0xa12a3cce4923c212cc57d7f268f8805af9d75b919.95 tCRO
0x37a8fd75df69bbadabfcaa3d7e1e853b236768e57dacfa2a08950f9c024a9ae830566752022-05-04 10:48:00217 days 23 hrs ago 0x0942890bd2bec3c9aac31c4a8db5f7004e3fe8f20xa12a3cce4923c212cc57d7f268f8805af9d75b919 tCRO
0xadd8b454a6ade3dc67a76237eb7183f26a6ff8fa0a9e7ab97fbf3f6a123ba0bb25310612022-04-01 8:07:38251 days 1 hr ago 0x0942890bd2bec3c9aac31c4a8db5f7004e3fe8f20xa12a3cce4923c212cc57d7f268f8805af9d75b919.99 tCRO
[ Download CSV Export 
Loading

Contract Name:
0

Compiler Version
0

Optimization Enabled:
0

Other Settings:
-NA-
Block Transaction Gas Used Reward
Age Block Fee Address BC Fee Address Voting Power Jailed Incoming
Block Uncle Number Difficulty Gas Used Reward
Loading